JAF34R EBAW-EBAW

Flight info

Callsign JAF34R
Flight time 0h 21m
Altitude 1500
Route EBAW/29
Aircraft B737/M-SDE2E3FGHIRWXY/L

Departure

Time 2026-04-15 10:27
Airport Antwerp International Airport (Deurne) (EBAW)

Arrival

Time 2026-04-15 10:49
Airport Antwerp International Airport (Deurne) (EBAW)
Time Latitude Longitude Altitude Speed Heading
2026-04-15 10:13 51.18922 4.45317 39 ft 0 kts 329°
2026-04-15 10:23 51.18929 4.45312 39 ft 2 kts 337°
2026-04-15 10:23 51.18942 4.45327 38 ft 4 kts 60°
2026-04-15 10:23 51.18953 4.45386 39 ft 5 kts 73°
2026-04-15 10:24 51.18969 4.45436 38 ft 5 kts 51°
2026-04-15 10:24 51.18997 4.45494 39 ft 9 kts 54°
2026-04-15 10:24 51.19044 4.45500 38 ft 10 kts 328°
2026-04-15 10:24 51.19081 4.45456 37 ft 0 kts 322°
2026-04-15 10:25 51.19088 4.45447 37 ft 6 kts 322°
2026-04-15 10:25 51.19170 4.45346 35 ft 19 kts 323°
2026-04-15 10:26 51.19209 4.45349 33 ft 4 kts 75°
2026-04-15 10:26 51.19206 4.45385 35 ft 0 kts 106°
2026-04-15 10:26 51.19205 4.45389 35 ft 4 kts 107°
2026-04-15 10:27 51.19101 4.45852 35 ft 96 kts 110°
2026-04-15 10:27 51.18783 4.47298 253 ft 163 kts 110°
2026-04-15 10:27 51.18542 4.49032 750 ft 170 kts 89°
2026-04-15 10:27 51.19130 4.50835 998 ft 203 kts 37°
2026-04-15 10:28 51.20472 4.51419 1139 ft 203 kts 352°
2026-04-15 10:28 51.21718 4.50481 1268 ft 201 kts 314°
2026-04-15 10:28 51.22456 4.48648 1257 ft 190 kts 293°
2026-04-15 10:28 51.22995 4.46839 1193 ft 172 kts 291°
2026-04-15 10:29 51.23499 4.45195 1227 ft 162 kts 291°
2026-04-15 10:29 51.23991 4.43550 1072 ft 167 kts 288°
2026-04-15 10:29 51.23984 4.41876 1031 ft 151 kts 238°
2026-04-15 10:29 51.23212 4.40912 999 ft 145 kts 193°
2026-04-15 10:30 51.22262 4.40793 1023 ft 131 kts 182°
2026-04-15 10:30 51.21353 4.40774 730 ft 134 kts 183°
2026-04-15 10:30 51.20458 4.40991 623 ft 132 kts 155°
2026-04-15 10:30 51.19897 4.42176 581 ft 140 kts 112°
2026-04-15 10:31 51.19617 4.43644 373 ft 138 kts 115°
2026-04-15 10:31 51.19282 4.45072 162 ft 134 kts 112°
2026-04-15 10:31 51.18977 4.46396 42 ft 119 kts 109°
2026-04-15 10:31 51.18677 4.47794 266 ft 146 kts 110°
2026-04-15 10:32 51.18235 4.49364 640 ft 166 kts 137°
2026-04-15 10:32 51.17210 4.49943 1043 ft 154 kts 197°
2026-04-15 10:32 51.16413 4.48812 1187 ft 182 kts 245°
2026-04-15 10:32 51.16427 4.46803 1641 ft 194 kts 289°
2026-04-15 10:33 51.16955 4.44815 1664 ft 197 kts 288°
2026-04-15 10:33 51.17478 4.42807 1430 ft 194 kts 291°
2026-04-15 10:33 51.18030 4.40927 1183 ft 182 kts 294°
2026-04-15 10:33 51.18907 4.39564 894 ft 177 kts 338°
2026-04-15 10:34 51.20009 4.39833 870 ft 164 kts 47°
2026-04-15 10:34 51.20258 4.41397 828 ft 142 kts 110°
2026-04-15 10:34 51.19874 4.42719 547 ft 128 kts 125°
2026-04-15 10:34 51.19512 4.44025 290 ft 128 kts 111°
2026-04-15 10:35 51.19224 4.45325 65 ft 121 kts 115°
2026-04-15 10:35 51.18959 4.46484 40 ft 107 kts 110°
2026-04-15 10:35 51.18654 4.47885 310 ft 144 kts 114°
2026-04-15 10:35 51.18336 4.49613 643 ft 181 kts 92°
2026-04-15 10:36 51.18838 4.51492 925 ft 200 kts 41°
2026-04-15 10:36 51.20116 4.52187 1222 ft 193 kts 352°
2026-04-15 10:36 51.21291 4.51324 1393 ft 183 kts 311°
2026-04-15 10:36 51.21928 4.49660 1333 ft 173 kts 287°
2026-04-15 10:37 51.22331 4.47875 1297 ft 170 kts 289°
2026-04-15 10:37 51.22629 4.46728 1264 ft 169 kts 290°
2026-04-15 10:37 51.23125 4.45055 1103 ft 165 kts 291°
2026-04-15 10:37 51.23503 4.43436 1125 ft 149 kts 270°
2026-04-15 10:38 51.22935 4.41562 1131 ft 145 kts 214°
2026-04-15 10:38 51.22034 4.40888 1124 ft 141 kts 201°
2026-04-15 10:38 51.21125 4.40348 988 ft 138 kts 198°
2026-04-15 10:38 51.20523 4.40276 854 ft 131 kts 165°
2026-04-15 10:39 51.19963 4.41375 658 ft 141 kts 104°
2026-04-15 10:39 51.19780 4.42817 548 ft 127 kts 110°
2026-04-15 10:39 51.19497 4.44130 258 ft 122 kts 116°
2026-04-15 10:39 51.19207 4.45405 64 ft 119 kts 116°
2026-04-15 10:40 51.18934 4.46595 44 ft 131 kts 110°
2026-04-15 10:40 51.18579 4.48150 407 ft 167 kts 115°
2026-04-15 10:40 51.18004 4.49783 1151 ft 160 kts 146°
2026-04-15 10:40 51.16966 4.50226 1277 ft 167 kts 192°
2026-04-15 10:41 51.16106 4.49082 1668 ft 170 kts 248°
2026-04-15 10:41 51.16103 4.47211 1430 ft 179 kts 290°
2026-04-15 10:41 51.16591 4.45414 1238 ft 177 kts 290°
2026-04-15 10:41 51.17040 4.43681 1203 ft 163 kts 290°
2026-04-15 10:42 51.17436 4.42027 1120 ft 162 kts 289°
2026-04-15 10:42 51.17883 4.40389 1031 ft 160 kts 313°
2026-04-15 10:42 51.18874 4.39879 1010 ft 154 kts 16°
2026-04-15 10:42 51.19705 4.40798 906 ft 137 kts 46°
2026-04-15 10:43 51.19936 4.42191 639 ft 131 kts 99°
2026-04-15 10:43 51.19657 4.43519 393 ft 130 kts 118°
2026-04-15 10:43 51.19354 4.44810 166 ft 127 kts 113°
2026-04-15 10:43 51.19054 4.46071 37 ft 111 kts 111°
2026-04-15 10:44 51.18759 4.47433 279 ft 151 kts 112°
2026-04-15 10:44 51.18437 4.49087 681 ft 173 kts 109°
2026-04-15 10:44 51.18539 4.50897 995 ft 174 kts 62°
2026-04-15 10:44 51.19515 4.52081 1238 ft 180 kts 14°
2026-04-15 10:45 51.20734 4.51777 1106 ft 189 kts 320°
2026-04-15 10:45 51.21531 4.50199 1261 ft 171 kts 294°
2026-04-15 10:45 51.21968 4.48491 1066 ft 167 kts 291°
2026-04-15 10:45 51.22449 4.46806 1170 ft 164 kts 293°
2026-04-15 10:46 51.22886 4.45178 1273 ft 157 kts 289°
2026-04-15 10:46 51.23308 4.43557 1118 ft 164 kts 288°
2026-04-15 10:46 51.23514 4.41786 1074 ft 159 kts 258°
2026-04-15 10:46 51.23023 4.40376 1130 ft 135 kts 216°
2026-04-15 10:47 51.22268 4.39790 1067 ft 114 kts 199°
2026-04-15 10:47 51.21462 4.39508 899 ft 122 kts 177°
2026-04-15 10:47 51.20671 4.39941 699 ft 123 kts 148°
2026-04-15 10:47 51.20222 4.41083 624 ft 135 kts 117°
2026-04-15 10:48 51.19913 4.42416 549 ft 120 kts 116°
2026-04-15 10:48 51.19583 4.43765 402 ft 135 kts 113°
2026-04-15 10:48 51.19272 4.45120 115 ft 126 kts 114°
2026-04-15 10:48 51.19004 4.46283 40 ft 74 kts 109°
2026-04-15 10:49 51.18890 4.46789 40 ft 35 kts 109°
2026-04-15 10:49 51.18816 4.47116 38 ft 23 kts 113°
2026-04-15 10:49 51.18796 4.47212 38 ft 1 kts 348°
2026-04-15 10:49 51.18817 4.47115 38 ft 22 kts 289°
2026-04-15 10:50 51.18874 4.46865 39 ft 26 kts 290°
2026-04-15 10:50 51.18942 4.46563 39 ft 31 kts 290°
2026-04-15 10:50 51.19020 4.46218 40 ft 35 kts 290°
2026-04-15 10:50 51.19094 4.45883 37 ft 23 kts 290°
2026-04-15 10:51 51.19095 4.45688 37 ft 17 kts 236°
2026-04-15 10:51 51.19022 4.45540 38 ft 17 kts 231°
2026-04-15 10:51 51.18972 4.45442 39 ft 8 kts 232°
2026-04-15 10:51 51.18941 4.45391 37 ft 4 kts 194°
2026-04-15 10:52 51.18907 4.45407 39 ft 6 kts 168°
2026-04-15 10:52 51.18881 4.45371 38 ft 6 kts 242°
2026-04-15 10:52 51.18872 4.45294 38 ft 8 kts 260°
2026-04-15 10:52 51.18882 4.45238 38 ft 5 kts 319°
2026-04-15 10:53 51.18898 4.45221 38 ft 0 kts 327°